Location: ???? ????
(31.2831°N, 45.5190°E)
Time: 04:34:49
(UTC+00:00)

ATLAS 2A CENTAUR R/B - Pass Details

Date: 24 February 2021
Orbit: 255 x 15800 km, 27.0° (Epoch: 14 April)

Event Time Altitude Azimuth Distance (km) Brightness Sun altitude
Rises 15:31:12 0° 240° (WSW) 20,119 11.1 -9.0°
Reaches altitude 10° 16:07:14 10° 240° (WSW) 15,564 10.1 -16.7°
Maximum altitude 16:58:50 59° 173° (S) 2,860 5.2 -27.7°
Enters shadow 17:02:25 44° 121° (ESE) 2,449 4.6 -28.5°
